Tracking 30923 objects as of 1-Jul-2025
HD Live streaming from Space Station
objects crossing your sky now

DELTA 1 DEB

Track DELTA 1 DEB now!
10-day predictions


NORAD ID: 10832
Int'l Code: 1976-077CC
Perigee: 1,502.7 km
Apogee: 1,695.9 km
Inclination: 102.3 °
Period: 118.0 minutes
Semi major axis: 7970 km
RCS: 0.094 m2 (small)
Launch date: July 29, 1976
Source: United States (US)
Launch site: AIR FORCE WESTERN TEST RANGE (AFWTR)

Note: This is SATELLITE DEBRIS
Your satellite tracking list
Your tracking list is empty




NASA's NSSDC Master Catalog

Two Line Element Set (TLE):
1 10832U 76077CC  25181.57839441  .00000119  00000-0  15274-2 0  9991
2 10832 102.2613 112.5382 0121245  87.9014  98.6153 12.20089750178784
Source of the keplerian elements: AFSPC